K4FB Weather Reports


time (UTC)temp
F
wind
direction
speed
knots
gust
knots
rain 1hr
in
rain 24hr
in
rain mn
in
humidity
%
barometer
mb
20260901054519 77 352 0.0 0.0 0.00 0.00 0.00 92 1017.8
20260901054006 77 352 0.0 0.0 0.00 0.00 0.00 92 1017.8
20260901053505 77 360 0.0 0.0 0.00 0.00 0.00 92 1017.9
20260901053023 77 352 0.0 0.0 0.00 0.00 0.00 92 1017.9
20260901052509 77 352 0.0 0.9 0.00 0.00 0.00 91 1018.0
20260901052009 77 360 0.0 0.9 0.00 0.00 0.00 91 1018.1
20260901051520 77 352 0.0 0.9 0.00 0.00 0.00 91 1018.2
20260901051012 77 352 0.0 0.0 0.00 0.00 0.00 91 1018.2
20260901050513 77 351 0.0 0.0 0.00 0.00 0.00 91 1018.2
20260901050033 77 352 0.0 0.9 0.00 0.00 0.00 91 1018.3
20260901045509 78 360 0.0 0.9 0.00 0.00 0.00 91 1018.3
20260901045014 78 352 0.0 0.9 0.00 0.00 0.00 91 1018.3
20260901044533 78 15 0.0 0.0 0.00 0.00 0.00 91 1018.3
20260901044009 78 15 0.0 0.9 0.00 0.00 0.00 91 1018.3
20260901043506 78 317 0.0 0.9 0.00 0.00 0.00 1018.3
20260901043026 78 308 0.0 0.9 0.00 0.00 0.00 91 1018.4
20260901042509 78 306 0.0 0.0 0.00 0.00 0.00 91 1018.4
20260901042007 78 306 0.0 0.0 0.00 0.00 0.00 91 1018.3
20260901041530 78 306 0.0 0.0 0.00 0.00 0.00 91 1018.5
20260901041011 78 306 0.0 0.0 0.00 0.00 0.00 91 1018.6
20260901040507 78 295 0.0 0.0 0.00 0.00 0.00 91 1018.5
20260901040033 78 295 0.0 0.0 0.00 0.00 0.00 90 1018.6
20260901035512 78 295 0.0 0.0 0.00 0.00 0.00 90 1018.5
20260901035016 78 295 0.0 0.0 0.00 0.00 0.00 90 1018.5
20260901034532 78 295 0.0 0.0 0.00 0.00 0.00 90 1018.4
20260901034011 78 295 0.0 0.0 0.00 0.00 0.00 90 1018.5
20260901033513 78 295 0.0 0.0 0.00 0.00 0.00 90 1018.5
20260901033020 78 295 0.0 0.0 0.00 0.00 0.00 90 1018.6
20260901032511 78 295 0.0 0.0 0.00 0.00 0.00 90 1018.6
20260901032009 78 295 0.0 0.0 0.00 0.00 0.00 1018.7
20260901031543 78 295 0.0 0.0 0.00 0.00 0.00 1018.7
20260901031008 78 295 0.0 0.0 0.00 0.00 0.00 1018.7
20260901030514 78 295 0.0 0.0 0.00 0.00 0.00 89 1018.6
20260901030030 78 295 0.0 0.0 0.00 0.00 0.00 89 1018.7
20260901025514 78 295 0.0 0.0 0.00 0.00 0.00 89 1018.7
20260901025012 78 294 0.0 0.0 0.00 0.00 0.00 89 1018.7
20260901024533 78 294 0.0 0.0 0.00 0.00 0.00 89 1018.6
20260901024016 78 294 0.0 0.0 0.00 0.00 0.00 89 1018.6
20260901023508 78 294 0.0 0.0 0.00 0.00 0.00 88 1018.5
20260901023030 78 294 0.0 0.0 0.00 0.00 0.00 88 1018.5
20260901022520 78 294 0.0 0.0 0.00 0.00 0.00 89 1018.3
20260901022020 78 309 0.0 0.0 0.00 0.00 0.00 88 1018.3
20260901021524 78 302 0.0 0.0 0.00 0.00 0.00 88 1018.2
20260901021012 78 304 0.0 0.0 0.00 0.00 0.00 88 1018.1
20260901020509 79 304 0.0 0.0 0.00 0.00 0.00 88 1018.1
20260901020029 79 304 0.0 0.0 0.00 0.00 0.00 88 1018.1
20260901015514 79 304 0.0 0.0 0.00 0.00 0.00 88 1018.1
20260901015016 79 304 0.0 0.0 0.00 0.00 0.00 88 1018.0
20260901014531 79 13 0.0 0.0 0.00 0.00 0.00 87 1018.0
20260901014009 79 13 0.0 0.0 0.00 0.00 0.00 87 1017.9
20260901013519 79 13 0.0 0.0 0.00 0.00 0.00 87 1017.9
20260901013033 79 13 0.0 0.0 0.00 0.00 0.00 87 1017.8
20260901012509 79 13 0.0 0.9 0.00 0.00 0.00 87 1017.8
20260901012018 79 13 0.0 0.9 0.00 0.00 0.00 87 1017.6
20260901011532 79 55 0.0 0.0 0.00 0.00 0.00 87 1017.6
20260901011018 79 72 0.0 0.0 0.00 0.00 0.00 87 1017.6
20260901010508 79 72 0.0 0.0 0.00 0.00 0.00 87 1017.5
20260901010035 79 74 0.0 0.0 0.00 0.00 0.00 86 1017.4
20260901005513 79 74 0.0 0.0 0.00 0.00 0.00 86 1017.2
20260901005011 79 74 0.0 0.0 0.00 0.00 0.00 86 1017.2
20260901004534 79 75 0.0 0.0 0.00 0.00 0.00 86 1017.2
20260901004015 79 75 0.0 0.0 0.00 0.00 0.00 86 1017.3
20260901003512 79 75 0.0 0.0 0.00 0.00 0.00 85 1017.3
20260901003027 79 75 0.0 0.0 0.00 0.00 0.00 85 1017.3
20260901002512 79 75 0.0 0.0 0.00 0.00 0.00 85 1017.4
20260901002017 79 75 0.0 0.9 0.00 0.00 0.00 85 1017.4
20260901001534 79 75 0.0 0.9 0.00 0.00 0.00 85 1017.4
20260901001012 79 75 0.0 0.9 0.00 0.00 0.00 84 1017.4
20260901000521 79 75 0.0 0.9 0.00 0.00 0.00 84 1017.4
20260901000033 79 81 0.0 0.9 0.00 0.00 0.00 84 1017.4
20260831235511 79 84 0.0 0.9 0.00 0.00 0.00 84 1017.5
20260831235011 80 87 0.0 0.9 0.00 0.00 0.00 84 1017.5
20260831234527 80 111 0.0 0.9 0.00 0.00 0.00 84 1017.4
20260831234011 80 95 0.0 0.9 0.00 0.00 0.00 84 1017.3
20260831233516 80 124 0.0 0.0 0.00 0.00 0.00 84 1017.4
20260831233030 80 107 0.0 0.0 0.00 0.00 0.00 84 1017.4
20260831232514 80 107 0.0 0.0 0.00 0.00 0.00 84 1017.3
20260831232011 80 17 0.0 1.7 0.00 0.00 0.00 84 1017.2
20260831231536 80 72 0.0 2.6 0.00 0.00 0.00 84 1017.3
20260831231019 80 59 0.0 2.6 0.00 0.00 0.00 84 1017.3
20260831230519 80 49 0.0 2.6 0.00 0.00 0.00 83 1017.4
20260831230034 80 47 0.0 2.6 0.00 0.00 0.00 84 1017.4
20260831225515 80 46 0.0 2.6 0.00 0.00 0.00 83 1017.4
20260831225018 80 49 0.0 1.7 0.00 0.00 0.00 84 1017.4
20260831224527 80 70 0.0 3.5 0.00 0.00 0.00 84 1017.5
20260831224010 80 98 0.0 3.5 0.00 0.00 0.00 83 1017.6
20260831223511 80 58 0.0 1.7 0.00 0.00 0.00 83 1017.5
20260831223024 80 35 0.0 1.7 0.00 0.00 0.00 83 1017.5
20260831222514 81 77 0.0 2.6 0.00 0.00 0.00 83 1017.5
20260831222013 81 59 0.0 5.2 0.00 0.00 0.00 83 1017.5
20260831221530 81 78 0.0 5.2 0.00 0.00 0.00 83 1017.5
20260831221013 81 36 1.7 5.2 0.00 0.00 0.00 82 1017.4
20260831220514 81 55 0.9 4.3 0.00 0.00 0.00 83 1017.4
20260831220031 81 71 0.0 6.1 0.00 0.00 0.00 83 1017.4
20260831215510 81 24 1.7 6.1 0.00 0.00 0.00 82 1017.4
20260831215007 81 80 0.9 6.1 0.00 0.00 0.00 82 1017.4
20260831214521 81 60 0.9 7.8 0.00 0.00 0.00 82 1017.3
20260831214006 81 89 2.6 8.7 0.00 0.00 0.00 81 1017.4
20260831213512 81 74 1.7 8.7 0.00 0.00 0.00 81 1017.3
20260831213026 81 78 0.9 6.1 0.00 0.00 0.00 80 1017.5
20260831212515 82 27 0.9 6.1 0.00 0.00 0.00 79 1017.6
20260831212012 83 19 1.7 5.2 0.00 0.00 0.00 79 1017.7
20260831211527 83 350 0.9 7.8 0.00 0.00 0.00 79 1017.7
20260831211017 83 92 0.0 10.4 0.00 0.00 0.00 79 1017.6
20260831210505 84 21 3.5 10.4 0.00 0.00 0.00 79 1017.6
20260831210027 83 57 3.5 10.4 0.00 0.00 0.00 79 1017.7
20260831205516 83 38 0.9 11.3 0.00 0.00 0.00 79 1017.7
20260831205016 83 69 4.3 13.0 0.00 0.00 0.00 79 1017.5
20260831204519 84 70 5.2 16.5 0.00 0.00 0.00 78 1017.7
20260831204011 84 67 5.2 16.5 0.00 0.00 0.00 77 1017.5
20260831203512 85 94 5.2 16.5 0.00 0.00 0.00 78 1017.3
20260831203024 85 30 7.0 16.5 0.00 0.00 0.00 78 1017.1
20260831202515 84 78 8.7 13.9 0.00 0.00 0.00 79 1017.1
20260831202014 83 118 4.3 13.9 0.00 0.00 0.00 79 1017.1
20260831201535 83 19 5.2 17.4 0.00 0.00 0.00 79 1017.1
20260831201014 83 135 7.8 17.4 0.00 0.00 0.00 78 1017.1
20260831200514 84 36 6.1 20.0 0.00 0.00 0.00 78 1017.2
20260831200035 84 38 7.8 20.0 0.00 0.00 0.00 76 1017.1
20260831195519 86 31 8.7 20.9 0.00 0.00 0.00 73 1017.3
20260831195011 88 11 7.0 20.9 0.00 0.00 0.00 69 1017.5
20260831194556 90 73 8.7 20.0 0.00 0.00 0.00 64 1017.4
20260831194019 92 98 1.7 7.8 0.00 0.00 0.00 62 1017.0
20260831193511 93 111 0.0 3.5 0.00 0.00 0.00 62 1016.7
20260831193018 93 192 0.9 5.2 0.00 0.00 0.00 57 1016.7
20260831192504 93 84 0.9 5.2 0.00 0.00 0.00 56 1016.6
20260831192008 93 105 0.9 3.5 0.00 0.00 0.00 58 1016.6
20260831191527 93 189 0.0 1.7 0.00 0.00 0.00 57 1016.6
20260831191011 93 115 0.0 2.6 0.00 0.00 0.00 58 1016.5
20260831190506 94 108 0.0 2.6 0.00 0.00 0.00 57 1016.6
20260831190023 94 65 0.0 3.5 0.00 0.00 0.00 58 1016.7
20260831185514 94 62 0.0 3.5 0.00 0.00 0.00 58 1016.8
20260831185018 95 54 0.0 5.2 0.00 0.00 0.00 57 1016.8
20260831184516 95 92 0.0 5.2 0.00 0.00 0.00 58 1016.8
20260831184006 95 254 0.0 3.5 0.00 0.00 0.00 58 1016.9
20260831183508 95 82 0.9 3.5 0.00 0.00 0.00 59 1017.0
20260831183012 95 176 0.0 3.5 0.00 0.00 0.00 60 1017.0
20260831182509 95 43 0.0 2.6 0.00 0.00 0.00 59 1017.0
20260831182013 95 112 0.0 3.5 0.00 0.00 0.00 61 1017.1
20260831181528 94 11 0.0 6.1 0.00 0.00 0.00 62 1017.2
20260831181011 94 33 1.7 6.1 0.00 0.00 0.00 61 1017.2
20260831180512 93 352 0.9 6.1 0.00 0.00 0.00 61 1017.2
20260831180028 93 312 0.0 4.3 0.00 0.00 0.00 61 1017.3
20260831175507 93 360 0.9 5.2 0.00 0.00 0.00 62 1017.4
20260831175008 93 325 0.9 5.2 0.00 0.00 0.00 62 1017.5
20260831174543 93 17 1.7 7.0 0.00 0.00 0.00 64 1017.5
20260831174017 93 60 0.9 7.0 0.00 0.00 0.00 64 1017.7
20260831173507 93 46 0.9 4.3 0.00 0.00 0.00 64 1017.7
20260831173015 93 340 0.0 4.3 0.00 0.00 0.00 63 1017.8
20260831172509 93 347 1.7 4.3 0.00 0.00 0.00 65 1017.9
20260831172007 93 5 0.0 4.3 0.00 0.00 0.00 66 1018.0
20260831171538 92 103 0.0 5.2 0.00 0.00 0.00 65 1018.1
20260831171010 92 34 1.7 5.2 0.00 0.00 0.00 67 1018.0
20260831170518 92 325 0.0 5.2 0.00 0.00 0.00 68 1018.1
20260831170045 92 53 0.0 5.2 0.00 0.00 0.00 70 1018.2
20260831165513 92 53 0.9 4.3 0.00 0.00 0.00 70 1018.4
20260831165012 91 97 0.0 7.0 0.00 0.00 0.00 72 1018.4
20260831164533 92 35 1.7 7.0 0.00 0.00 0.00 70 1018.4
20260831164009 91 74 0.0 6.1 0.00 0.00 0.00 70 1018.4
20260831163513 91 80 0.9 6.1 0.00 0.00 0.00 72 1018.5
20260831163036 91 67 0.9 4.3 0.00 0.00 0.00 71 1018.6
20260831162511 91 29 0.0 4.3 0.00 0.00 0.00 72 1018.6
20260831162007 90 103 0.0 5.2 0.00 0.00 0.00 75 1018.7
20260831161518 90 44 0.9 7.0 0.00 0.00 0.00 72 1018.7
20260831161011 90 5 0.9 7.0 0.00 0.00 0.00 72 1018.7
20260831160508 90 5 0.9 7.0 0.00 0.00 0.00 73 1018.8
20260831160032 90 28 0.0 6.1 0.00 0.00 0.00 73 1018.9
20260831155515 90 130 0.0 2.6 0.00 0.00 0.00 72 1018.9
20260831155009 90 5 0.0 3.5 0.00 0.00 0.00 72 1019.0
20260831154559 89 135 0.0 3.5 0.00 0.00 0.00 74 1019.0
20260831154016 89 59 0.0 1.7 0.00 0.00 0.00 73 1019.0
20260831153517 89 120 0.0 1.7 0.00 0.00 0.00 78 1019.0
20260831153020 89 33 0.0 7.0 0.00 0.00 0.00 76 1019.0
20260831152515 89 109 0.0 7.0 0.00 0.00 0.00 77 1019.0
20260831152020 89 5 0.0 1.7 0.00 0.00 0.00 77 1019.0
20260831151525 88 41 0.0 0.9 0.00 0.00 0.00 80 1019.0
20260831151013 88 42 0.0 0.9 0.00 0.00 0.00 80 1019.0
20260831150508 87 22 0.0 0.0 0.00 0.00 0.00 80 1019.0
20260831150025 86 135 0.0 0.0 0.00 0.00 0.00 81 1018.9
20260831145510 86 36 0.0 0.0 0.00 0.00 0.00 80 1018.9
20260831145010 86 13 0.0 0.0 0.00 0.00 0.00 81 1018.8
20260831144532 85 63 0.0 0.0 0.00 0.00 0.00 82 1018.8
20260831144015 85 11 0.0 0.9 0.00 0.00 0.00 82 1018.8
20260831143513 84 9 0.0 0.9 0.00 0.00 0.00 84 1018.8
20260831143035 84 55 0.0 0.0 0.00 0.00 0.00 84 1018.7
20260831142516 83 352 0.0 0.0 0.00 0.00 0.00 86 1018.8
20260831142012 83 61 0.0 0.0 0.00 0.00 0.00 86 1018.9
20260831141531 82 17 0.0 0.0 0.00 0.00 0.00 87 1018.9
20260831141015 82 19 0.0 0.0 0.00 0.00 0.00 87 1018.9
20260831140519 82 55 0.0 0.0 0.00 0.00 0.00 88 1018.9
20260831140032 81 9 0.0 0.0 0.00 0.00 0.00 88 1018.9
20260831135511 81 338 0.0 0.0 0.00 0.00 0.00 88 1018.8
20260831135012 80 321 0.0 0.0 0.00 0.00 0.00 89 1018.9
20260831134525 80 331 0.0 0.0 0.00 0.00 0.00 91 1018.8
20260831134013 80 331 0.0 0.0 0.00 0.00 0.00 91 1018.7
20260831133516 80 330 0.0 0.0 0.00 0.00 0.00 91 1018.7
20260831133030 79 48 0.0 0.0 0.00 0.00 0.00 91 1018.7
20260831132510 79 44 0.0 0.0 0.00 0.00 0.00 91 1018.7
20260831132014 79 329 0.0 0.0 0.00 0.00 0.00 92 1018.7
20260831131513 79 336 0.0 0.0 0.00 0.00 0.00 92 1018.6
20260831131011 78 84 0.0 0.0 0.00 0.00 0.00 92 1018.6
20260831130507 78 146 0.0 1.7 0.00 0.00 0.00 93 1018.8
20260831130016 78 32 0.0 1.7 0.00 0.00 0.00 93 1018.7
20260831125510 78 42 0.0 2.6 0.00 0.00 0.00 93 1018.7
20260831125012 77 55 0.0 2.6 0.00 0.00 0.00 94 1018.7
20260831124524 77 14 0.0 0.9 0.00 0.00 0.00 95 1018.6
20260831124009 77 350 0.0 1.7 0.00 0.00 0.00 1018.6
20260831123510 77 26 0.0 1.7 0.00 0.00 0.00 95 1018.6
20260831123027 76 321 0.0 0.9 0.00 0.00 0.00 95 1018.4
20260831122515 76 321 0.0 1.7 0.00 0.00 0.00 95 1018.2
20260831122008 76 323 0.0 1.7 0.00 0.00 0.00 95 1018.2
20260831121528 75 333 0.0 0.9 0.00 0.00 0.00 95 1018.2
20260831121016 75 5 0.0 0.9 0.00 0.00 0.00 95 1018.2
20260831120506 74 16 0.0 0.0 0.00 0.00 0.00 95 1018.3
20260831120028 74 67 0.0 0.0 0.00 0.00 0.00 95 1018.2
20260831115506 74 67 0.0 0.0 0.00 0.00 0.00 95 1018.1
20260831115007 74 67 0.0 0.0 0.00 0.00 0.00 95 1018.0
20260831114526 74 67 0.0 0.0 0.00 0.00 0.00 95 1018.0
20260831114010 73 67 0.0 0.0 0.00 0.00 0.00 95 1017.9
20260831113513 73 67 0.0 0.0 0.00 0.00 0.00 94 1017.9
20260831113019 73 67 0.0 0.0 0.00 0.00 0.00 94 1017.6
20260831112512 73 67 0.0 0.0 0.00 0.00 0.00 94 1017.5
20260831112012 73 67 0.0 0.0 0.00 0.00 0.00 94 1017.5
20260831111532 73 67 0.0 0.0 0.00 0.00 0.00 94 1017.4
20260831111010 73 67 0.0 0.0 0.00 0.00 0.00 94 1017.3
20260831110512 73 67 0.0 0.0 0.00 0.00 0.00 94 1017.2
20260831110033 73 67 0.0 0.0 0.00 0.00 0.00 94 1017.1
20260831105516 73 67 0.0 0.0 0.00 0.00 0.00 94 1017.0
20260831105011 73 67 0.0 0.0 0.00 0.00 0.00 94 1017.0
20260831104531 73 67 0.0 0.0 0.00 0.00 0.00 94 1016.9
20260831104007 73 67 0.0 0.0 0.00 0.00 0.00 94 1016.9
20260831103507 73 67 0.0 0.0 0.00 0.00 0.00 94 1016.8
20260831103049 73 67 0.0 0.0 0.00 0.00 0.00 94 1016.9
20260831102504 73 67 0.0 0.0 0.00 0.00 0.00 94 1016.9
20260831102004 73 67 0.0 0.0 0.00 0.00 0.00 94 1016.9
20260831101508 73 67 0.0 0.0 0.00 0.00 0.00 94 1017.0
20260831101005 73 67 0.0 0.0 0.00 0.00 0.00 94 1016.8
20260831100504 73 67 0.0 0.0 0.00 0.00 0.00 94 1016.7
20260831100012 73 67 0.0 0.0 0.00 0.00 0.00 93 1016.6
20260831095504 73 67 0.0 0.0 0.00 0.00 0.00 93 1016.7
20260831095003 73 67 0.0 0.0 0.00 0.00 0.00 94 1016.8
20260831094526 73 67 0.0 0.0 0.00 0.00 0.00 93 1016.7
20260831094008 73 67 0.0 0.0 0.00 0.00 0.00 94 1016.7
20260831093503 73 67 0.0 0.0 0.00 0.00 0.00 93 1016.7
20260831093015 73 67 0.0 0.0 0.00 0.00 0.00 93 1016.8
20260831092507 73 67 0.0 0.0 0.00 0.00 0.00 93 1016.9
20260831092002 74 67 0.0 0.0 0.00 0.00 0.00 93 1016.8
20260831091504 74 67 0.0 0.0 0.00 0.00 0.00 93 1016.8
20260831091003 74 67 0.0 0.0 0.00 0.00 0.00 93 1016.7
20260831090506 74 67 0.0 0.0 0.00 0.00 0.00 93 1016.7
20260831090007 74 67 0.0 0.0 0.00 0.00 0.00 93 1016.6
20260831085504 74 67 0.0 0.0 0.00 0.00 0.00 93 1016.7
20260831085005 74 67 0.0 0.0 0.00 0.00 0.00 94 1016.7
20260831084504 74 67 0.0 0.0 0.00 0.00 0.00 93 1016.8
20260831084004 74 67 0.0 0.0 0.00 0.00 0.00 93 1016.8
20260831083507 74 67 0.0 0.0 0.00 0.00 0.00 93 1016.8
20260831083023 74 67 0.0 0.0 0.00 0.00 0.00 93 1016.7
20260831082504 74 67 0.0 0.0 0.00 0.00 0.00 94 1016.7
20260831082004 74 67 0.0 0.0 0.00 0.00 0.00 94 1016.5
20260831081523 74 67 0.0 0.0 0.00 0.00 0.00 94 1016.6
20260831081014 74 76 0.0 0.0 0.00 0.00 0.00 93 1016.6
20260831080507 74 77 0.0 0.0 0.00 0.00 0.00 93 1016.8
20260831080022 74 59 0.0 0.0 0.00 0.00 0.00 93 1016.7
20260831075503 74 48 0.0 0.0 0.00 0.00 0.00 93 1016.6
20260831075004 74 48 0.0 0.0 0.00 0.00 0.00 93 1016.7
20260831074513 74 48 0.0 0.0 0.00 0.00 0.00 93 1017.0
20260831074006 74 48 0.0 0.0 0.00 0.00 0.00 93 1017.0
20260831073507 74 48 0.0 0.0 0.00 0.00 0.00 93 1017.1
20260831073019 74 48 0.0 0.0 0.00 0.00 0.00 93 1017.1
20260831072506 74 47 0.0 0.0 0.00 0.00 0.00 93 1017.1
20260831072011 74 47 0.0 0.0 0.00 0.00 0.00 93 1017.2
20260831071507 74 47 0.0 0.0 0.00 0.00 0.00 93 1017.4
20260831071003 74 47 0.0 0.0 0.00 0.00 0.00 93 1017.3
20260831070507 74 47 0.0 0.0 0.00 0.00 0.00 93 1017.2
20260831070030 74 47 0.0 0.0 0.00 0.00 0.00 93 1017.2
20260831065507 74 47 0.0 0.0 0.00 0.00 0.00 93 1017.2
20260831065004 74 47 0.0 0.0 0.00 0.00 0.00 93 1017.3
20260831064510 74 47 0.0 0.0 0.00 0.00 0.00 93 1017.4
20260831064004 74 47 0.0 0.0 0.00 0.00 0.00 93 1017.4
20260831063504 74 42 0.0 0.0 0.00 0.00 0.00 92 1017.2
20260831063024 74 42 0.0 0.0 0.00 0.00 0.00 93 1017.3
20260831062507 74 42 0.0 0.0 0.00 0.00 0.00 92 1017.3
20260831062008 74 42 0.0 0.0 0.00 0.00 0.00 92 1017.3
20260831061516 74 42 0.0 0.0 0.00 0.00 0.00 93 1017.4
20260831061013 74 42 0.0 0.0 0.00 0.00 0.00 92 1017.4
20260831060503 74 42 0.0 0.0 0.00 0.00 0.00 92 1017.5
20260831060014 74 42 0.0 0.0 0.00 0.00 0.00 92 1017.4
20260831055507 74 42 0.0 0.0 0.00 0.00 0.00 92 1017.4
20260831055011 74 42 0.0 0.0 0.00 0.00 0.00 92 1017.5